www.pogodaiklimat.ru

Погода и климат >> Архив погоды >> Россия >> Якутия >> Бестяхская Звероферма


ПОГОДА в Бестяхской Звероферме

  • Прогноз погоды в Бестяхской Звероферме
  • Монитор погоды в Бестяхской Звероферме

АРХИВ ПОГОДЫ в Бестяхской Звероферме

Время (UTC), дата Ветер
(напр.,м/с)
 
Видим.   Явления Облачность Т
(С)
Тd
(С)
f
(%)
Тe
(С)
Тes
(С)
Комфортность P
(гПа)
Po
(гПа)
Тmin
(С)
Tmax
(С)
R
(мм)
R24
(мм)
S
(см)
18 15.07 СЗ 1 50 км 3/0
[Ci fib]
+6.9 +4.1 82 +6 +6 1013.7 1004.7
21 15.07 СЗ 2 10 км дым 5/0
[Ci fib]
+12.5 +4.9 60 +12 +13 1013.5 1004.8
00 16.07 С 4-11
{11}
10 км дым 6/0
[Ci fib]
+17.7 +5.1 43 +17 +21 1013.6 1005.0 +6.2
03 16.07 С 5-12
{14}
20 км дым 4/0
[Ci fib]
+22.1 +5.3 33 +22 +28 комфорт 1013.2 1004.6
06 16.07 С 4
{14}
10 км дым 8/0
[Ci fib]
+22.6 +4.3 30 +23 +28 комфорт 1011.9 1003.5
09 16.07 СВ 1
{10}
10 км дым 8/0
[Ac trans Ci fib]
+21.1 +8.9 46 +22 +25 комфорт 1011.3 1002.7
12 16.07 СЗ 1 20 км дым 8/0
[Ac trans Ci fib]
+19.9 +9.2 50 +22 +22 комфорт 1010.8 1002.2 +23.7
15 16.07 З 1 50 км 8/0
[Ac trans Ci fib]
+10.5 +7.4 81 +10 +10 1010.1 1001.2
18 16.07 З 1 50 км 10/5 600 м
[Cu Sc Ac trans Ci fib]
+8.3 +6.6 89 +7 +7 1008.7 999.8
21 16.07 ЮВ 1 50 км 10/8 600 м
[Cu Sc Ac trans Ci fib]
+13.9 +9.8 76 +14 +14 1006.5 997.8
00 17.07 Ю 2 50 км в посл. час ливневой дождь 10/10 600 м
[Cb cap]
+16.5 +11.5 72 +17 +17 1003.2 994.6 +7.6 0.3
03 17.07 ЮЗ 3 50 км {ливн. осадки} 10/6 600 м
[Sc Ac trans Ci fib]
+25.4 +14.4 51 +28 +30 жарко 999.7 991.4
06 17.07 З 5-10
{12}
50 км гроза без осадков {ливн. осадки} 9/9 600 м
[Cb cap]
+25.5 +14.3 50 +28 +28 жарко 996.6 988.3
09 17.07 СЗ 4-10
{14}
4000 м мгла {гроза} 10/10 600 м
[Cb cap]
+16.5 +11.9 74 +16 +16 1000.3 991.7
12 17.07 СЗ 4
{11}
10 км дым {гроза} 8/8 600 м
[Sc]
+16.1 +9.8 66 +15 +15 1001.4 992.8 +28.3 0.3
15 17.07 СЗ 5-12
{14}
50 км ясно +14.2 +7.3 63 +13 +13 1002.1 993.5
18 17.07 СЗ 4-10
{13}
50 км 1/0
[Ci fib]
+10.9 +5.7 70 +9 +9 1003.7 994.9
21 17.07 С 3
{12}
50 км 3/3 600 м
[Cu hum]
+9.4 +5.2 75 +7 +8 1005.8 996.9
00 18.07 С 5-10
{13}
50 км ясно +11.2 +4.8 65 +9 +12 1007.0 998.1 +9.2
03 18.07 С 5-11
{16}
50 км 1/1 600 м
[Cu hum]
+14.0 +4.8 54 +12 +18 1008.2 999.5
06 18.07 С 4
{12}
50 км 9/9 600 м
[Cu Sc]
+14.0 +5.0 55 +13 +13 1009.4 1000.7
09 18.07 С 4
{12}
50 км 9/9 600 м
[Sc]
+15.6 +4.8 49 +15 +15 1009.6 1000.9
12 18.07 С 2
{10}
50 км 8/8 600 м
[Sc]
+14.4 +3.7 49 +14 +14 1010.7 1002.0 +16.6
15 18.07 СВ 3 50 км 3/3 600 м
[Sc]
+11.4 -0.1 45 +10 +10 1012.0 1003.1
18 18.07 С 2 50 км ясно +10.0 +0.7 52 +9 +9 1012.4 1003.5
21 18.07 С 2 50 км ясно +10.3 +0.5 51 +9 +11 1013.1 1004.2
00 19.07 СВ 3 50 км 1/1 600 м
[Cu hum]
+12.7 +0.6 43 +12 +16 1014.2 1005.3 +9.3
03 19.07 С 4
{11}
50 км 8/8 600 м
[Sc]
+15.0 +1.9 41 +14 +16 1014.9 1006.1
06 19.07 С 4
{11}
50 км 8/8 600 м
[Cb cap]
+17.6 +3.5 39 +17 +19 1015.1 1006.5
09 19.07 С 3
{10}
50 км 8/8 600 м
[Cu Sc]
+18.6 +2.9 35 +19 +20 1015.9 1007.3
12 19.07 штиль 0 50 км 1/1 600 м
[Cu hum]
+15.3 +5.2 51 +15 +16 1017.7 1008.9 +19.1
15 19.07 З 1 50 км ясно +3.6 +1.6 87 +2 +2 1019.1 1010.0
18 19.07 СЗ 1 50 км ясно +2.3 +0.1 85 +1 +1 1019.6 1010.3
21 19.07 СЗ 1 10 км дым ясно +7.7 +4.3 79 +7 +8 1020.7 1011.8
00 20.07 В 1 2000 м мгла ясно +16.2 +7.4 56 +17 +25 1020.8 1012.0 +0.4
03 20.07 СВ 3 50 км ясно +19.8 +3.3 34 +20 +30 1020.5 1011.9
06 20.07 СВ 2 50 км 8/0
[Ci fib]
+20.9 +3.0 31 +22 +30 комфорт 1019.8 1011.2
09 20.07 СВ 2 20 км дым 8/0
[Ci fib]
+19.1 +5.5 41 +20 +23 1019.5 1010.9
12 20.07 штиль 0 20 км дым 8/0
[Ac trans Ci fib]
+13.4 +6.3 62 +13 +13 1019.7 1010.9 +21.4
15 20.07 СЗ 1 50 км 4/0
[Ci fib]
+6.7 +3.1 78 +6 +6 1020.3 1011.2
18 20.07 СЗ 1 50 км 3/0
[Ci fib]
+3.8 +2.6 92 +2 +2 1020.5 1011.4
21 20.07 штиль 0 10 км дым 6/0
[Ac lent Ci fib]
+7.7 +5.5 86 +7 +8 1020.6 1011.7
00 21.07 В 1 10 км дым ясно +20.5 +6.2 39 +22 +30 комфорт 1020.4 1011.8 +3.8
03 21.07 В 2 2000 м мгла ясно +23.3 +6.7 34 +24 +35 комфорт 1019.2 1010.7
06 21.07 В 2 4000 м мгла 3/0
[Ci fib]
+25.1 +6.2 30 +25 +33 комфорт 1017.3 1008.8
09 21.07 В 2 10 км дым 8/0
[Ci fib]
+25.3 +7.6 32 +25 +28 комфорт 1016.1 1007.6
12 21.07 ЮВ 1 10 км дым 10/0
[Ac trans Ci fib]
+20.7 +9.3 48 +23 +23 комфорт 1015.9 1007.3 +26.0
15 21.07 З 1 10 км дым 10/0
[Ac trans Ci fib]
+10.2 +7.0 81 +10 +10 1015.4 1006.5
18 21.07 СЗ 1 10 км дым 5/0
[Ac trans Ci fib]
+9.2 +6.4 83 +9 +9 1015.8 1006.9
21 21.07 С 2 10 км дым 3/0
[Ac trans Cc]
+14.1 +9.4 73 +14 +15 1016.1 1007.3
00 22.07 С 3 2000 м мгла 3/0
[Ci fib]
+18.1 +7.5 50 +18 +23 1016.5 1007.9 +8.0
03 22.07 С 4
{11}
4000 м мгла 8/0
[Ci fib]
+22.6 +2.0 26 +22 +28 комфорт 1015.9 1007.3
06 22.07 С 2
{10}
4000 м мгла ?/? +20.2 +4.0 34 +21 +21 комфорт 1015.2 1006.6
09 22.07 С 3 4000 м мгла {туман} ?/? +23.2 +2.5 26 +23 +23 комфорт 1013.9 1005.4
12 22.07 С 2 10 км дым {туман} 3/0
[Ci fib]
+20.7 +4.5 35 +22 +22 комфорт 1013.8 1005.2 +23.7

 

Местоположение метеостанции Бестяхская Звероферма (Якутия, Россия): широта 65.30 долгота 124.10 высота над уровнем моря 73 м.

В архиве по умолчанию представлена погода в Бестяхской Звероферме за последнюю неделю. Архивные данные за месяц целиком и за предыдущие месяцы, начиная с января 2011 года, Вы можете получить, выбрав интересующий диапазон дат из раскрывающегося списка и нажав кнопку "Ввод!".


*Определитесь, кто Вы:
робот инопланетянин человек

Внимание! Время в таблицах - всемирное. Для получения местного времени необходимо прибавить поправку, которая равна 9 ч.

Смотрите также архив погоды в соседних городах и на ближайших метеорологических станциях:

Погода в Хатырык-Хомо (Якутия, Россия) (154 км)
Погода в Сого-Хае (Якутия, Россия) (157 км)
Погода в Жиганске (Якутия, Россия) (169 км)
Погода в Вилюйске (Якутия, Россия) (208 км)
Погода в Сангаре (Якутия, Россия) (217 км)
Погода в Себян-Кюеле (Якутия, Россия) (274 км)
Погода в Верхневилюйске (Якутия, Россия) (278 км)
Погода в Эйке (Якутия, Россия) (317 км)
Погода в Батамае (Якутия, Россия) (322 км)
Погода в Сеген-Кюеле (Якутия, Россия) (329 км)

Пояснения к столбцам:

Ветер - указаны скорость ветра в м/с - средняя за 10 мин, порывы в срок и между сроками (в фигурных скобках) и направление, откуда дует ветер: С - северный, СВ - северо-восточный, В - восточный, ЮВ - юго-восточный, Ю - южный, ЮЗ - юго-западный, З - западный, СЗ - северо-западный.
Видимость - горизонтальная дальность видимости в метрах или километрах. При видимости от 1 до 10 км при отсутствии осадков обычно наблюдается дымка, при ухудшении видимости до 1 км и менее - туман. В сухую погоду видимость может ухудшаться дымом, пылью или мглою.
Явления - указаны атмосферные явления, наблюдавшиеся в срок или в последний час перед сроком; фигурными скобками обозначены явления, наблюдавшиеся между сроками (за 1-3 часа до срока); квадратными скобками обозначены град или гололедные отложения с указанием их диаметра в мм.
Облачность - указаны через наклонную черту общая и нижняя облачность в баллах и высота нижней границы облаков в метрах; квадратными скобками обозначены формы облаков: Ci - перистые, Cs - перисто-слоистые, Cc - перисто-кучевые, Ac - высококучевые, As - высокослоистые, Sc - слоисто-кучевые, Ns - слоисто-дождевые, Cu - кучевые, Cb - кучево-дождевые. Подробнее классификацию облаков см. в Атласе облаков (PDF).
T - Температура воздуха - температура, измеренная на высоте 2 м над землей.
Td - Температура точки росы - температура, при понижении до которой содержащийся в воздухе водяной пар достигнет насыщения.
f - Относительная влажность воздуха - влажноcть воздуха, измеренная на высоте 2 м над землей.
Te - Эффективная температура - температура, которую ощущает одетый по сезону человек в тени. Характеристика душности погоды. При расчете учитывается влияние влажности воздуха и скорости ветра на теплоощущения человека.
Tes - Эффективная температура на солнце - температура, которую ощущает человек, с поправкой на солнечный нагрев. Характеристика знойности погоды. Зависит от высоты солнца над горизонтом, облачности и скорости ветра. Ночью, в пасмурную погоду, а также при ветре 12 м/с и более поправка равна нулю.
P - Атмосферное давление - приведенное к уровню моря атмосферное давление.
Po - Атмосферное давление - измеренное на уровне метеостанции атмосферное давление.
Tmin - Минимальная температура - минимум температуры воздуха на высоте 2 м над землей.
Tmax - Максимальная температура - максимум температуры воздуха на высоте 2 м над землей.
R - Количество осадков - Количество выпавших осадков за период времени, мм. При наведении курсора мыши на число - период времени, за который выпало указанное количество осадков.
R24 - Количество осадков - Количество выпавших осадков за 24 часа, мм.
S - Снежный покров - Высота снежного покрова, см. При наведении курсора мыши на число - состояние снежного покрова и степень покрытия местности в баллах.